Tacoma, WA

4:59 AM PST on January 22, 2018 (GMT -0800)
McChord Air Force Base

Weather History for KTCM - June, 2013

Change the Weather History Date:

Friday, June 14, 2013

  Actual Average Record
Temperature  
Mean Temperature 58 °F -  
Max Temperature 65 °F 67 °F 86 °F (1988)
Min Temperature 49 °F 47 °F 41 °F (1976)
Degree Days  
Heating Degree Days 7    
Growing Degree Days 8 (Base 50)    
Moisture  
Dew Point 48 °F    
Average Humidity 73    
Maximum Humidity 89    
Minimum Humidity 54    
Precipitation  
Precipitation 0.00 in - - ()
Sea Level Pressure  
Sea Level Pressure 30.22 in    
Wind  
Wind Speed 7 mph (SW)    
Max Wind Speed 12 mph    
Max Gust Speed -    
Visibility 10 miles    
Events Rain    
Averages and records for this station are not official NWS values.
T = Trace of Precipitation, MM = Missing Value Source: NWS Daily Summary

Daily Weather History Graph

Daily Weather History Graph

Search for Another Location

Airport or City:

Trip Planner

Search our weather history database for the weather conditions in past years. The results will help you decide how hot, cold, wet, or windy it might be!

Date:

Astronomy

Jun. 14, 2013 Rise Set
Actual Time 5:13 AM PDT 9:07 PM PDT
Civil Twilight 4:33 AM PDT 9:47 PM PDT
Nautical Twilight 3:39 AM PDT 10:41 PM PDT
Astronomical Twilight 2:16 AM PDT 12:04 AM PDT
Moon 11:14 AM PDT (6/14) No Moon Set
Length of Visible Light 17h 13m
Length of Day
15h 53m
Waxing Crescent, 31% of the Moon is Illuminated
Jun 14
Waxing Crescent
Jun 16
First Quarter
Jun 23
Full
Jun 29
Last Quarter
Jul 8
New

Hourly Weather History & Observations

Time (PDT) Temp. Dew Point Humidity Pressure Visibility Wind Dir Wind Speed Gust Speed Precip Events Conditions
12:58 AM 53.4 °F 47.5 °F 80% 30.27 in 10.0 mi SSW 4.6 mph - N/A   Mostly Cloudy
1:58 AM 52.7 °F 47.5 °F 82% 30.27 in 10.0 mi SW 6.9 mph - N/A   Mostly Cloudy
2:23 AM 51.8 °F 48.2 °F 88% 30.25 in 10.0 mi South 5.8 mph - N/A   Overcast
2:58 AM 52.5 °F 47.8 °F 84% 30.26 in 10.0 mi SSW 6.9 mph - N/A   Overcast
3:58 AM 53.2 °F 46.9 °F 79% 30.26 in 10.0 mi South 8.1 mph - N/A   Overcast
4:58 AM 52.3 °F 47.1 °F 82% 30.26 in 10.0 mi South 5.8 mph - N/A   Overcast
5:58 AM 52.7 °F 47.3 °F 82% 30.27 in 10.0 mi SSW 5.8 mph - N/A   Overcast
6:58 AM 53.4 °F 47.8 °F 81% 30.26 in 10.0 mi South 6.9 mph - N/A   Overcast
7:28 AM 53.6 °F 48.2 °F 82% 30.25 in 10.0 mi South 6.9 mph - N/A   Overcast
7:58 AM 54.7 °F 47.8 °F 78% 30.26 in 10.0 mi SSW 8.1 mph - N/A   Overcast
8:23 AM 55.4 °F 48.2 °F 77% 30.25 in 10.0 mi South 8.1 mph - N/A   Overcast
8:53 AM 55.4 °F 48.2 °F 77% 30.25 in 10.0 mi SSW 6.9 mph - N/A   Overcast
8:58 AM 56.1 °F 47.8 °F 74% 30.26 in 10.0 mi SSW 9.2 mph - N/A   Overcast
9:03 AM 55.4 °F 48.2 °F 77% 30.25 in 10.0 mi South 10.4 mph - N/A   Overcast
9:18 AM 55.4 °F 48.2 °F 77% 30.25 in 10.0 mi SW 6.9 mph - N/A   Overcast
9:23 AM 57.2 °F 46.4 °F 67% 30.25 in 10.0 mi SW 9.2 mph - N/A   Overcast
9:33 AM 57.2 °F 48.2 °F 72% 30.25 in 10.0 mi SSW 9.2 mph - N/A   Overcast
9:38 AM 57.2 °F 48.2 °F 72% 30.24 in 10.0 mi SW 11.5 mph - N/A   Overcast
9:58 AM 55.4 °F 46.4 °F 72% 30.27 in 10.0 mi SSW 9.2 mph - N/A   Overcast
10:34 AM 55.4 °F 48.2 °F 77% 30.25 in 10.0 mi SSW 6.9 mph - N/A Rain Light Rain
10:43 AM 55.4 °F 50.0 °F 82% 30.25 in 10.0 mi SSW 6.9 mph - N/A   Overcast
10:58 AM 55.2 °F 49.3 °F 80% 30.27 in 10.0 mi SSW 8.1 mph - 0.00 in   Overcast
11:18 AM 57.2 °F 46.4 °F 67% 30.24 in 10.0 mi SSW 6.9 mph - N/A   Overcast
11:48 AM 59.0 °F 48.2 °F 67% 30.24 in 10.0 mi SW 8.1 mph - N/A   Overcast
11:58 AM 58.6 °F 47.8 °F 67% 30.25 in 10.0 mi SSW 5.8 mph - N/A   Overcast
12:58 PM 58.3 °F 48.0 °F 69% 30.25 in 10.0 mi SSW 5.8 mph - N/A   Overcast
1:18 PM 59.0 °F 48.2 °F 67% 30.23 in 10.0 mi SW 4.6 mph - N/A   Overcast
1:58 PM 61.9 °F 48.0 °F 60% 30.23 in 10.0 mi WSW 4.6 mph - N/A   Overcast
2:58 PM 63.5 °F 49.6 °F 61% 30.22 in 10.0 mi Variable 4.6 mph - N/A   Overcast
3:58 PM 64.2 °F 49.3 °F 58% 30.20 in 10.0 mi NW 8.1 mph - N/A   Scattered Clouds
4:58 PM 63.3 °F 48.6 °F 59% 30.17 in 10.0 mi Variable 4.6 mph - N/A   Overcast
5:58 PM 65.1 °F 48.2 °F 54% 30.14 in 10.0 mi Variable 3.5 mph - N/A   Scattered Clouds
6:58 PM 65.3 °F 48.4 °F 54% 30.12 in 10.0 mi NW 5.8 mph - N/A   Clear
7:58 PM 63.0 °F 47.8 °F 58% 30.11 in 10.0 mi NW 8.1 mph - N/A   Clear
8:58 PM 60.8 °F 47.8 °F 62% 30.10 in 10.0 mi NW 5.8 mph - N/A   Clear
9:58 PM 58.8 °F 47.1 °F 65% 30.09 in 10.0 mi NNW 3.5 mph - N/A   Clear
10:58 PM 52.3 °F 47.8 °F 85% 30.09 in 10.0 mi East 2.3 mph - N/A   Clear
11:58 PM 49.3 °F 46.2 °F 89% 30.07 in 10.0 mi Calm Calm - N/A   Clear